Dewpoint
50 51 52 52 51 51 51 51 51 52 52 52 53 52 52 52 53 52 52 52 52 53 52 52 52 52 52 51 51 52 53 47 45 42 41 38 44 57 56 54 54 56 57 35 30 30 28 27 25 21 16 15 17 19 21 22 20 16 13 11 8 2 1 -2 -1 -1 8 6 8 9 9 8 8 32 51 55 54 53 55 56 57 59 58 61 62 64 64 66
50 50 51 51 51 50 50 51 52 51 52 52 53 53 52 52 52 53 53 52 53 52 52 52 52 52 52 51 52 53 50 46 43 42 40 48 53 56 56 57 58 55 57 28 25 23 21 21 20 16 14 11 22 12 23 17 22 11 9 8 4 3 1 4 2 8 6 9 10 9 10 8 7 10 45 47 45 52 51 55 56 58 59 60 62 63 65 66
50 50 50 51 50 50 50 51 51 51 52 52 53 52 52 52 52 53 53 53 52 52 52 52 53 51 52 51 51 53 49 43 42 39 40 55 55 55 59 59 56 56 49 22 21 19 18 18 19 14 12 10 15 16 20 22 20 12 11 10 9 5 7 8 9 9 10 12 10 9 9 8 6 7 24 36 38 43 43 49 54 54 57 58 62 62 65 65
49 50 50 50 50 50 50 51 51 51 51 52 52 52 52 52 53 53 53 52 52 51 52 52 51 52 51 51 53 50 46 43 37 35 46 59 55 55 59 61 58 56 42 24 21 18 17 16 17 13 9 7 14 18 14 22 16 13 15 8 3 6 7 4 8 12 12 12 11 10 10 7 6 14 19 29 34 36 32 32 37 47 56 59 60 61 65 65
50 50 50 49 50 50 50 50 50 51 51 51 52 51 51 52 53 52 52 53 52 52 51 51 51 51 51 52 53 49 45 36 30 42 56 60 57 58 59 62 60 43 33 25 20 19 18 19 15 13 11 8 15 17 14 20 15 19 12 5 8 13 6 8 9 13 12 13 11 10 8 6 6 17 20 25 26 25 30 41 46 50 57 59 61 60 63 64
50 50 50 50 50 50 50 51 51 50 51 50 51 51 51 52 52 52 52 52 52 52 51 51 51 51 51 53 49 47 41 -7 29 38 65 61 57 58 60 61 59 38 31 23 18 17 18 17 15 14 12 5 15 12 12 16 18 14 14 11 17 13 7 10 10 11 12 11 10 9 8 8 6 7 8 18 28 37 42 45 45 52 57 60 62 61 63 64
50 50 50 50 50 50 50 50 50 50 50 50 50 51 51 52 52 51 52 52 52 51 52 52 52 51 51 53 48 45 38 14 24 46 64 61 58 58 61 59 55 33 28 22 19 16 16 16 14 11 8 9 12 10 12 18 18 10 7 13 13 12 11 10 9 11 11 11 10 9 8 7 6 5 12 13 23 38 45 42 42 54 58 61 61 61 63 64
50 50 50 50 50 50 49 49 50 50 50 51 51 51 52 52 52 52 52 51 51 51 51 52 51 50 52 46 44 39 27 1 34 54 63 60 54 56 57 39 33 29 25 21 18 16 16 14 11 12 9 7 12 10 16 16 15 11 8 14 13 13 12 11 10 10 10 10 9 9 7 7 6 6 9 9 27 44 47 47 51 55 59 61 61 61 64 64
50 50 50 50 49 50 50 50 50 51 51 51 51 51 51 51 52 52 52 51 51 50 51 51 51 51 52 48 41 23 -1 36 47 51 57 53 46 50 45 36 32 25 23 21 19 16 15 14 11 14 7 7 12 9 19 12 12 12 9 9 13 12 11 10 10 9 8 7 9 8 7 6 6 7 7 7 45 51 53 52 54 57 58 60 60 62 63 64
50 50 50 50 50 50 49 49 50 51 51 50 51 51 50 51 52 51 51 51 50 50 51 51 50 51 47 45 39 23 23 42 47 53 53 49 47 47 40 31 31 25 22 20 20 18 14 14 14 14 19 11 15 9 15 9 7 12 9 11 12 10 9 9 8 8 8 8 9 7 6 5 6 7 3 38 50 51 53 54 56 57 59 60 60 62 63 63
49 50 50 50 50 50 50 49 49 50 50 50 50 50 50 50 51 51 50 51 51 50 51 50 53 50 46 41 28 15 22 41 40 48 52 52 48 40 33 32 30 26 24 22 20 18 14 16 20 18 18 11 12 11 14 11 8 8 10 10 9 8 8 8 9 9 8 5 8 7 4 5 6 10 3 45 53 53 52 54 56 57 59 59 59 61 62 63
49 49 49 50 50 50 50 50 50 49 50 50 50 50 50 49 49 50 50 51 50 51 50 51 51 49 43 41 28 22 38 36 39 44 49 47 38 32 31 31 29 27 26 23 20 18 15 19 22 19 13 17 9 13 10 10 10 9 8 6 5 5 5 6 5 5 9 4 6 7 4 3 10 5 13 46 52 53 52 53 54 56 57 58 59 60 62 62
49 49 49 50 50 50 50 50 50 50 50 50 49 49 49 49 49 50 51 51 51 50 51 48 50 47 46 38 32 30 28 32 37 39 45 44 38 34 34 33 31 30 27 23 19 21 16 24 24 21 20 14 12 7 11 12 9 11 9 5 3 5 3 3 4 5 6 4 5 4 3 1 2 4 30 50 50 52 52 52 54 56 57 57 58 61 63 62
49 49 49 50 50 50 50 50 50 50 50 50 50 49 49 49 49 49 50 51 50 51 52 52 48 43 47 33 27 28 33 37 38 39 39 40 34 32 33 34 32 30 29 27 23 22 18 25 27 24 22 19 14 16 12 11 11 5 4 6 5 2 0 0 4 4 3 5 5 3 7 -0 -2 2 38 49 50 48 48 51 53 56 56 57 58 61 62 62
48 49 49 49 50 50 50 50 50 50 49 50 50 50 50 50 49 49 49 50 50 51 49 51 49 48 46 35 36 45 51 43 39 35 36 34 30 28 31 32 30 29 28 24 19 20 20 24 26 20 16 19 19 13 9 8 8 5 6 4 -1 3 -0 4 4 4 0 4 4 2 8 0 -0 23 45 50 49 45 44 49 53 57 56 57 57 59 61 62
49 49 49 49 49 50 50 50 50 49 49 49 50 50 50 50 50 50 49 50 51 52 49 48 46 44 40 34 33 50 43 34 30 35 35 31 28 20 26 29 28 27 28 24 21 19 18 20 18 18 18 15 15 10 6 6 7 7 5 13 3 1 -3 1 4 5 3 6 4 2 -0 -2 -1 21 43 48 48 45 43 48 54 56 57 56 57 58 60 61
49 49 49 49 49 50 50 50 49 49 49 49 49 49 50 50 47 48 51 51 50 50 47 43 44 46 42 31 31 30 27 30 35 36 36 33 30 23 25 26 25 25 25 22 20 19 19 18 22 22 17 12 12 10 8 8 11 8 3 7 9 3 -2 -2 7 7 9 7 6 6 1 3 14 22 42 47 47 46 43 48 54 55 56 56 56 58 60 60
49 49 49 49 49 49 49 49 49 49 49 48 49 49 49 50 50 51 50 51 49 48 47 48 45 44 37 36 26 25 26 27 30 36 37 35 26 21 21 20 23 21 19 18 19 17 20 22 18 16 17 19 16 11 11 7 13 11 11 10 9 6 6 -1 5 9 11 12 9 10 9 6 4 30 42 47 48 46 46 49 54 54 55 55 56 57 58 59
48 48 48 49 49 49 49 49 49 49 48 49 48 50 51 51 50 49 47 47 45 46 44 45 43 32 22 24 25 24 24 29 32 33 33 30 24 20 18 18 19 17 16 18 18 20 21 23 23 18 15 14 11 6 5 5 5 5 7 4 6 7 3 4 9 14 12 13 9 10 10 9 9 23 42 48 49 48 49 53 55 54 54 54 54 55 57 58
48 48 48 48 49 49 49 49 49 49 49 47 46 49 50 49 49 48 46 47 43 33 28 29 37 31 28 27 26 28 31 30 28 30 32 27 22 20 20 17 16 15 20 22 22 25 21 19 16 14 13 15 19 17 20 13 12 10 7 8 7 5 4 3 11 15 16 14 14 13 14 11 11 20 44 49 50 50 50 52 55 54 54 53 53 54 55 58
48 48 48 48 49 49 49 49 49 49 49 47 46 44 27 26 26 27 34 37 41 37 34 33 31 31 29 30 30 28 27 27 27 28 31 27 21 19 18 18 17 23 20 18 25 30 23 19 18 17 18 19 20 26 24 23 20 10 9 8 4 5 8 8 12 16 20 26 15 17 14 14 14 31 45 49 50 49 49 50 54 53 53 53 53 54 54 58
48 48 48 48 48 48 49 49 49 50 49 47 45 39 28 30 35 37 35 28 31 35 36 35 34 33 34 33 33 33 31 29 28 27 31 27 20 16 18 15 16 16 21 23 24 23 21 17 19 20 26 26 27 26 23 22 21 19 11 8 9 6 6 15 15 21 23 26 19 14 12 13 21 33 44 47 49 49 50 51 52 53 54 53 52 54 55 57
48 48 48 48 48 48 48 49 49 48 47 46 43 38 29 37 36 34 37 34 33 34 33 34 33 34 34 36 35 34 31 27 24 28 28 28 20 17 17 15 16 15 20 23 20 22 21 14 20 17 25 25 27 26 25 24 24 16 12 14 10 8 7 11 26 23 24 23 24 20 11 26 33 40 44 47 47 50 51 51 52 53 54 54 53 53 54 56
48 48 48 48 48 48 48 49 49 48 47 44 39 32 29 33 30 34 38 35 30 28 32 31 33 33 32 33 36 34 30 26 27 26 29 25 18 15 17 14 15 16 15 17 16 15 12 17 21 23 22 22 24 27 24 18 12 19 20 12 7 11 7 9 22 25 28 23 27 16 19 28 31 34 45 50 50 51 52 52 51 53 53 55 55 55 56 56
47 47 48 47 48 48 48 49 46 47 45 44 39 36 34 36 35 38 41 36 33 33 35 34 35 34 33 36 36 31 29 29 27 27 28 24 17 16 15 15 15 14 12 14 14 13 11 23 27 18 17 18 23 22 21 20 9 12 22 22 18 18 17 13 24 22 23 23 26 16 12 14 27 29 33 45 49 48 50 52 51 52 54 54 53 55 56 57
47 47 47 47 47 47 48 46 45 43 36 28 24 33 35 32 34 42 39 31 23 21 31 31 36 31 35 30 33 29 28 24 26 27 27 24 23 13 15 15 15 11 11 13 11 14 10 31 19 21 21 19 17 16 18 19 11 15 18 20 21 16 20 20 20 20 17 19 22 29 16 12 20 25 35 44 45 46 50 50 50 52 53 53 53 54 54 55
47 47 47 47 47 47 41 35 43 39 28 18 32 37 31 31 46 46 36 26 20 25 25 31 33 34 35 32 30 28 18 19 26 28 27 26 19 17 13 11 13 14 13 19 18 10 13 16 18 20 24 20 18 15 22 20 16 13 28 17 16 15 19 22 19 16 15 24 26 25 17 15 12 18 38 42 40 42 47 49 50 50 53 53 55 55 56 55
47 47 47 47 47 46 45 46 41 32 18 31 34 31 31 40 48 48 35 14 11 25 27 27 25 33 33 31 31 22 23 26 22 26 25 23 20 18 15 11 9 9 16 18 11 25 21 22 22 21 20 15 13 12 20 20 16 16 26 16 15 13 20 18 16 19 19 19 15 14 16 15 12 25 30 37 37 42 44 47 49 50 51 54 55 54 55 57
47 47 47 47 47 47 46 45 43 32 29 34 35 30 32 49 47 37 22 11 29 19 23 26 28 29 28 31 30 27 23 23 18 25 24 22 20 17 12 14 12 9 12 15 11 22 19 17 14 15 15 15 15 15 18 20 18 26 22 19 18 19 19 19 15 13 19 17 14 16 20 11 11 20 21 30 31 35 38 42 45 48 50 51 53 56 56 56
48 47 47 47 46 47 46 46 44 38 36 37 33 34 45 48 41 24 19 12 25 19 20 24 24 22 27 26 26 26 24 21 20 23 22 21 19 18 17 17 12 13 12 12 13 15 20 27 28 17 14 14 19 23 21 17 21 23 20 14 15 14 18 20 19 16 18 14 14 20 24 16 9 17 19 22 25 32 32 33 35 39 45 48 52 53 55 55
47 47 47 47 43 42 42 38 39 39 39 41 39 42 48 42 30 19 17 11 17 20 21 23 21 22 23 22 21 24 24 19 20 22 21 21 18 16 16 16 15 14 15 15 14 11 13 16 16 14 18 17 17 18 21 22 21 20 17 13 12 16 19 20 20 18 15 11 18 19 23 22 12 14 19 31 33 35 38 37 38 39 37 36 43 49 52 54
47 47 47 47 44 44 36 23 35 39 42 45 41 40 37 24 25 20 16 14 12 20 20 19 19 20 21 21 18 20 22 21 20 21 19 18 20 17 17 18 19 14 12 14 12 13 15 12 11 16 24 15 15 15 17 18 20 18 16 13 15 13 12 10 12 13 11 11 21 20 19 16 12 33 28 32 36 40 43 41 44 43 41 44 39 43 49 52
47 47 47 46 46 46 43 40 40 44 47 43 35 30 29 21 20 20 16 11 13 23 16 17 20 16 17 19 18 18 20 19 19 20 21 19 19 18 17 16 14 17 13 18 15 16 14 12 11 11 16 19 14 12 15 16 18 16 14 16 11 8 10 10 8 11 12 21 23 22 23 15 15 26 33 36 40 42 46 47 47 46 47 48 43 40 46 52
47 48 48 48 46 45 45 50 47 45 43 42 30 29 25 18 18 24 19 11 12 23 18 16 15 13 13 16 18 17 17 19 19 19 20 21 19 23 17 17 17 14 20 24 12 15 12 12 13 14 14 14 14 12 14 17 16 14 11 10 13 11 12 11 5 7 10 9 23 22 20 15 15 19 32 38 42 45 46 45 48 48 46 48 42 43 48 50
47 49 50 51 49 47 48 46 50 49 46 36 26 25 23 21 18 20 21 12 8 14 15 17 11 12 14 15 18 17 16 17 19 18 18 19 21 21 22 18 19 17 15 17 23 23 10 12 11 13 16 15 12 12 13 13 14 14 13 11 12 14 15 8 18 18 13 11 19 22 18 21 22 32 34 40 42 45 46 47 49 49 47 48 47 48 49 51
47 48 49 47 43 46 46 46 50 49 42 30 22 20 19 22 13 9 9 13 12 9 5 11 8 9 13 13 19 18 18 20 16 18 18 17 19 19 19 19 19 19 20 18 24 16 11 13 13 13 15 14 12 14 14 14 18 18 13 15 12 17 12 18 24 33 25 16 10 19 21 20 27 26 32 38 42 44 45 46 47 48 49 51 49 49 49 51
45 47 44 43 41 42 47 47 47 46 40 27 20 18 22 19 9 9 20 12 16 12 10 2 7 7 14 14 17 18 17 18 19 16 19 18 20 18 18 18 18 18 18 20 21 18 16 10 13 12 11 12 12 12 12 11 12 14 13 11 16 16 19 19 9 16 12 10 16 21 16 16 16 18 27 32 40 43 43 44 47 50 49 48 49 49 50 51
46 46 46 39 39 45 47 47 47 42 26 24 21 24 20 16 16 7 23 19 18 16 10 4 15 5 11 14 15 17 20 16 19 17 17 17 22 18 18 17 18 17 18 18 19 24 19 15 12 12 11 11 11 11 11 10 12 10 10 14 12 14 12 18 15 13 12 11 10 16 15 15 14 20 26 31 37 43 43 45 45 46 47 47 47 49 51 52
47 43 39 39 41 46 47 48 45 32 22 20 21 21 23 22 19 12 23 24 21 19 11 9 10 10 13 14 15 18 18 20 19 17 16 20 18 27 19 18 17 17 17 17 18 25 25 18 15 13 10 10 10 10 12 12 11 11 12 11 12 18 16 16 14 12 14 10 13 16 15 11 14 25 26 34 41 43 43 45 45 46 47 47 47 47 48 51
43 37 36 43 42 47 48 48 41 28 18 14 17 20 19 19 22 20 24 22 18 15 15 16 10 13 9 13 15 15 18 19 23 21 16 26 16 21 20 20 19 17 17 18 16 21 22 29 16 12 12 9 10 13 11 10 13 12 13 12 13 21 22 18 22 13 9 10 9 11 12 12 29 36 35 35 39 44 44 46 47 48 47 47 46 48 49 51
43 34 36 43 41 45 46 43 34 23 15 16 17 15 23 18 21 22 23 28 20 21 20 19 18 14 18 16 12 15 17 19 20 22 19 19 19 22 24 24 22 18 19 16 16 24 21 20 16 15 11 11 10 13 12 12 11 11 13 12 10 13 12 10 11 15 15 11 12 10 11 18 36 37 38 38 39 39 41 45 47 47 47 48 47 50 51 51
37 29 32 41 46 46 44 32 30 28 19 14 18 19 24 35 22 21 21 26 23 18 21 18 17 16 17 12 13 16 16 16 18 21 21 22 24 22 25 28 25 22 19 21 20 34 35 25 20 16 14 11 12 13 14 13 13 12 14 11 9 15 13 10 9 14 15 11 15 12 11 24 38 37 39 41 40 36 41 44 46 47 47 48 49 47 51 52
34 32 38 39 48 43 39 29 33 29 25 18 25 23 22 27 18 19 19 21 17 18 19 17 15 18 14 12 15 13 14 18 17 16 19 20 27 28 34 34 26 25 23 22 20 29 44 25 21 15 12 12 14 13 15 12 11 9 14 20 16 16 18 15 11 17 14 18 14 9 13 20 37 39 42 44 43 41 46 46 45 46 47 48 48 49 50 51
35 35 33 36 46 44 37 24 21 22 21 29 28 18 20 18 23 19 14 20 17 20 16 17 17 13 20 21 19 12 18 21 17 17 19 23 26 26 29 33 28 26 29 30 29 34 27 26 24 16 15 13 13 11 11 11 11 15 16 24 20 17 20 27 22 23 14 15 12 8 10 24 39 40 41 42 42 42 43 45 46 47 49 50 49 51 52 52
35 39 36 37 39 40 34 34 32 26 26 31 28 23 25 20 24 25 23 22 23 22 25 21 24 25 17 21 21 21 20 20 29 22 24 22 23 24 27 31 28 28 30 35 37 28 24 29 24 17 16 15 14 12 13 12 13 21 22 20 19 16 26 21 12 13 12 17 13 11 9 34 36 39 40 41 41 42 44 45 47 48 50 49 50 50 50 51
29 27 32 36 38 37 35 37 35 33 28 29 28 29 26 24 24 24 24 23 22 22 22 22 21 23 23 23 24 20 20 23 22 27 19 22 22 21 22 29 33 29 37 43 35 31 28 30 29 26 19 18 18 16 20 17 17 14 16 21 22 23 24 29 22 12 10 21 18 15 20 31 34 36 38 39 42 42 45 46 47 47 49 50 49 48 49 49
33 30 30 29 36 34 35 32 32 33 29 36 25 30 27 26 24 22 23 26 22 22 22 22 20 26 29 25 30 27 23 21 21 25 25 23 19 20 21 25 33 37 43 36 34 31 31 27 28 29 24 20 20 17 16 17 19 18 18 22 20 24 26 29 19 16 31 19 14 31 33 34 33 35 37 40 42 43 45 46 47 48 47 46 46 45 46 45
28 32 32 37 33 29 30 31 31 33 30 29 29 30 26 24 26 28 23 21 21 24 28 22 20 19 22 29 31 29 28 28 28 28 23 22 20 20 20 20 22 30 34 29 36 33 35 25 29 29 24 24 23 20 18 19 19 19 22 26 25 25 29 31 30 29 33 24 14 33 36 35 33 35 38 39 40 42 43 45 46 46 45 45 44 43 43 43
32 33 33 37 32 33 33 35 36 32 33 30 28 27 26 24 24 21 23 26 21 24 21 25 23 18 21 23 29 29 33 26 26 31 32 28 28 25 22 20 20 23 28 32 35 36 32 28 28 26 23 24 25 25 25 23 21 19 21 20 23 28 28 30 32 32 33 34 36 36 36 34 34 36 38 40 41 42 43 44 44 43 42 41 40 40 40 41
30 31 30 35 35 32 35 37 37 36 33 33 26 30 23 24 22 21 19 24 27 25 22 24 18 19 21 22 27 29 30 32 31 27 31 35 29 30 28 28 26 25 24 31 31 38 32 29 32 27 27 26 28 28 27 26 26 25 24 24 24 25 27 29 31 33 34 35 35 35 34 32 34 38 38 40 41 40 41 41 41 42 40 40 39 39 40 39
38 37 38 32 29 29 32 35 36 34 31 31 28 30 28 24 24 19 20 19 22 25 23 25 22 23 22 22 24 24 23 28 29 29 28 29 26 24 27 27 20 27 22 29 32 33 35 28 31 30 27 27 28 27 27 28 27 26 29 30 29 29 28 31 28 33 34 30 34 33 30 30 33 36 38 39 37 35 35 37 38 37 36 36 37 37 38 38
41 38 39 36 26 28 28 29 36 35 29 32 33 30 29 26 23 23 22 19 19 20 24 25 25 27 25 27 25 25 25 25 26 25 23 21 23 21 19 19 19 26 26 28 32 28 30 29 28 27 24 24 25 26 27 26 27 22 25 32 31 30 30 28 28 30 33 35 30 24 30 33 34 34 33 32 31 30 30 32 32 31 31 32 33 34 35 37